PROBA-1 1 26958U 01049B 26145.56777361 .00002407 00000+0 15842-3 0 9999 2 26958 97.9602 153.3122 0054488 198.1182 161.8105 15.07392790340216 CUTE-1 (CO-55) 1 27844U 03031E 26145.48744790 .00000245 00000+0 12520-3 0 9996 2 27844 98.6738 154.3320 0008361 248.7369 111.2917 14.24319547188440 CUBESAT XI-IV (CO-57) 1 27848U 03031J 26145.46453734 .00000221 00000+0 11605-3 0 9990 2 27848 98.6770 154.0402 0008191 270.2413 89.7827 14.23606827188144 APRIZESAT 4 1 35684U 09041D 26145.46492903 .00000661 00000+0 85353-4 0 9995 2 35684 98.1414 220.3329 0044061 36.8975 323.5256 14.83841705907990 APRIZESAT 3 1 35686U 09041F 26145.42769520 .00001939 00000+0 17136-3 0 9997 2 35686 98.2035 297.5668 0062725 141.4267 219.1459 14.96151275912977 PROBA-2 1 36037U 09059B 26145.26937079 .00000159 00000+0 47564-4 0 9997 2 36037 98.2450 328.9405 0013114 357.4849 2.6280 14.54850975878199 APRIZESAT 5 1 37792U 11044E 26145.37456659 .00000932 00000+0 12475-3 0 9996 2 37792 98.2450 77.7704 0053653 76.5121 284.2062 14.81017361795416 APRIZESAT 6 1 37793U 11044F 26145.53981806 .00000548 00000+0 84752-4 0 9993 2 37793 98.2379 55.5760 0043591 156.7472 19.2501 14.76878118793807 PROBA-V 1 39159U 13021A 26145.41713460 .00000071 00000+0 49163-4 0 9992 2 39159 98.3574 125.1498 0003900 182.6159 177.5001 14.23591557677877 APRIZESAT 7 1 39416U 13066A 26145.61292455 .00001215 00000+0 12578-3 0 9995 2 39416 97.7696 99.1600 0034343 287.0817 72.6641 14.91505059677863 APRIZESAT 8 1 39425U 13066K 26145.40683681 .00001034 00000+0 11788-3 0 9998 2 39425 97.8210 93.1952 0046078 2.8818 357.2655 14.87595665676281 BUGSAT-1 (TITA) 1 40014U 14033E 26145.58659339 .00005196 00000+0 27744-3 0 9993 2 40014 98.0416 236.8197 0026847 257.2703 102.5526 15.15306663652413 SAUDISAT 4 1 40016U 14033G 26145.66550186 .00000676 00000+0 95740-4 0 9994 2 40016 97.7555 292.5836 0045690 145.2160 215.2053 14.79505352642741 APRIZESAT 9 1 40018U 14033J 26145.33377784 .00000464 00000+0 75924-4 0 9998 2 40018 97.9029 279.0950 0064741 273.8440 85.5368 14.74181400640198 APRIZESAT 10 1 40019U 14033K 26145.33743345 .00000330 00000+0 59878-4 0 9991 2 40019 97.9619 272.8107 0078460 347.7574 12.1724 14.70859992638891 TECHDEMOSAT-1 (TDS-1) 1 40076U 14037H 26144.94676020 .00007332 00000+0 42091-3 0 9996 2 40076 98.3814 134.8649 0006094 4.9095 355.2192 15.12872787644710 TECHNOSAT 1 42829U 17042E 26145.37591099 .00003236 00000+0 23269-3 0 9998 2 42829 97.4268 303.9083 0018166 167.1884 192.9808 15.04797923483274 FLYING LAPTOP 1 42831U 17042G 26145.58734962 .00003512 00000+0 27890-3 0 9993 2 42831 97.4590 302.0063 0018276 197.2979 162.7625 15.00975583483069 HAWK-A 1 43765U 18099H 26145.57197815 .00006294 00000+0 25597-3 0 9994 2 43765 97.3932 198.1060 0034983 8.1654 352.0146 15.24319805409659 HAWK-B 1 43794U 18099AN 26145.10663813 .00005725 00000+0 24643-3 0 9990 2 43794 97.3981 197.1098 0032773 27.6289 332.6680 15.22516431409525 HAWK-C 1 43799U 18099AT 26145.59929228 .00007474 00000+0 27209-3 0 9997 2 43799 97.3908 198.9349 0040698 8.0440 352.1443 15.27718535410467 SALSAT 1 46495U 20068K 26144.98774178 .00007014 00000+0 24856-3 0 9991 2 46495 97.8855 146.6473 0010593 33.8053 326.3859 15.29404891311816 HAWK-2C 1 47502U 21006CT 26145.06805290 .00005769 00000+0 17579-3 0 9993 2 47502 97.2298 189.8425 0004984 285.6616 74.4077 15.34341960295958 HAWK-2A 1 47505U 21006CW 26145.59250279 .00005953 00000+0 18121-3 0 9994 2 47505 97.2339 191.0209 0004573 289.5631 70.5118 15.34361743296030 HAWK-2B 1 47508U 21006CZ 26145.52383150 .00006889 00000+0 20900-3 0 9992 2 47508 97.2208 189.3221 0004998 286.1708 73.8985 15.34409013296021 HAWK-3B 1 48931U 21059BE 26145.48583860 .00039061 00000+0 36030-3 0 9995 2 48931 97.6684 340.0813 0005264 63.9204 296.2597 15.67504363274291 HAWK-3C 1 48948U 21059BX 26145.29403887 .00041690 00000+0 38463-3 0 9995 2 48948 97.6812 345.5176 0005815 64.3228 295.8632 15.67482292274265 HAWK-3A 1 48957U 21059CG 26145.48540717 .00039158 00000+0 36119-3 0 9992 2 48957 97.6753 342.9509 0005588 65.1084 295.0756 15.67501656274294 HAWK-5C 1 52754U 22057Y 26145.39809112 .00018331 00000+0 32316-3 0 9993 2 52754 97.6568 303.6179 0005445 148.0912 212.0670 15.50458135222818 HAWK-5B 1 52756U 22057AA 26145.39794052 .00018314 00000+0 32284-3 0 9996 2 52756 97.6578 301.9643 0005878 142.5204 217.6458 15.50456448222811 HAWK-5A 1 52757U 22057AB 26145.39771439 .00018468 00000+0 32552-3 0 9999 2 52757 97.6575 302.7963 0005982 145.8497 214.3139 15.50458106222812 HAWK-6B 1 55324U 23011A 26145.36093768 .00004255 00000+0 18691-3 0 9999 2 55324 40.4980 125.1871 0004543 245.0902 114.9435 15.22698031184365 HAWK-6C 1 55326U 23011C 26145.29471616 .00003572 00000+0 15829-3 0 9996 2 55326 40.4973 122.4144 0004521 236.1140 123.9239 15.22687898184364 HAWK-6A 1 55327U 23011D 26145.22915617 .00004393 00000+0 19269-3 0 9998 2 55327 40.4985 124.4191 0004301 235.7086 124.3316 15.22695743184350 HAWK-7A 1 56191U 23054P 26145.24378708 .00001387 00000+0 54901-4 0 9994 2 56191 97.2740 33.1646 0004860 105.9286 254.2489 15.27075871173520 HAWK-7B 1 56193U 23054R 26145.24372467 .00005386 00000+0 20543-3 0 9999 2 56193 97.2760 31.4205 0003819 110.7880 249.3769 15.27079889173522 HAWK-7C 1 56200U 23054Y 26145.57123045 .00005334 00000+0 20346-3 0 9994 2 56200 97.2736 32.5156 0004119 103.5386 256.6312 15.27082521173573